This is the latest recevied weather packets stored in our database for station/object K4PAD. If no packets are shown the sender has not sent any weather packets the latest 1 day(s).
| Time | Temp. | Humidity | Pressure | Rain* | Wind** | Luminosity | Snow |
|---|---|---|---|---|---|---|---|
| 1778025516 | 23.89° C | 54% | 1016.8 hPa | 0 mm | 0 m/s | 10 W/m² | - |
| 1778025213 | 23.89° C | 53% | 1016.5 hPa | 0 mm | 0.89 m/s, 69° | 15 W/m² | - |
| 1778024910 | 23.89° C | 53% | 1016.6 hPa | 0 mm | 0 m/s | 19 W/m² | - |
| 1778024608 | 23.89° C | 52% | 1016.5 hPa | 0 mm | 0.45 m/s, 99° | 25 W/m² | - |
| 1778024316 | 24.44° C | 51% | 1016.5 hPa | 0 mm | 0 m/s | 32 W/m² | - |
| 1778024002 | 24.44° C | 50% | 1016.5 hPa | 0 mm | 1.34 m/s, 57° | 42 W/m² | - |
| 1778023699 | 25° C | 49% | 1016.4 hPa | 0 mm | 0 m/s | 48 W/m² | - |
| 1778023397 | 25° C | 49% | 1016.5 hPa | 0 mm | 0.45 m/s, 93° | 50 W/m² | - |
| 1778023094 | 25° C | 49% | 1016.5 hPa | 0 mm | 0.45 m/s, 87° | 58 W/m² | - |
| 1778022792 | 25.56° C | 48% | 1016.5 hPa | 0 mm | 0.45 m/s, 92° | 58 W/m² | - |
| 1778022490 | 25.56° C | 47% | 1016.4 hPa | 0 mm | 0.45 m/s, 81° | 82 W/m² | - |
| 1778022186 | 25.56° C | 47% | 1016.4 hPa | 0 mm | 0 m/s | 92 W/m² | - |
| 1778021883 | 25.56° C | 47% | 1016.4 hPa | 0 mm | 0.89 m/s, 73° | 124 W/m² | - |
| 1778021580 | 26.11° C | 46% | 1016.2 hPa | 0 mm | 0.45 m/s, 92° | 128 W/m² | - |
| 1778021275 | 26.11° C | 46% | 1016.5 hPa | 0 mm | 0.45 m/s, 108° | 120 W/m² | - |
| 1778020973 | 26.11° C | 46% | 1016.4 hPa | 0 mm | 0.45 m/s, 72° | 161 W/m² | - |
| 1778020670 | 26.11° C | 46% | 1016.4 hPa | 0 mm | 0.45 m/s, 97° | 185 W/m² | - |
| 1778020367 | 26.11° C | 46% | 1016.3 hPa | 0 mm | 2.24 m/s, 82° | 206 W/m² | - |
| 1778020063 | 26.67° C | 45% | 1016.4 hPa | 0 mm | 1.34 m/s, 98° | 216 W/m² | - |
| 1778019759 | 26.67° C | 46% | 1016.3 hPa | 0 mm | 0.45 m/s, 63° | 244 W/m² | - |
| 1778019456 | 26.67° C | 46% | 1016.3 hPa | 0 mm | 0.45 m/s, 101° | 267 W/m² | - |
| 1778019153 | 26.67° C | 47% | 1016.3 hPa | 0 mm | 0 m/s | 286 W/m² | - |
| 1778018849 | 26.67° C | 47% | 1016.3 hPa | 0 mm | 1.79 m/s, 107° | 320 W/m² | - |
| 1778018547 | 26.67° C | 46% | 1016.2 hPa | 0 mm | 0.89 m/s, 76° | 339 W/m² | - |
| 1778018245 | 27.22° C | 45% | 1016.2 hPa | 0 mm | 1.34 m/s, 91° | 343 W/m² | - |
* Rain latest hour (hover to see other rain measurements)
** Current wind speed in m/s (hover to see current wind gust speed)